Location: ??? ?????
(30.6482°N, 60.5850°E)
Time: 18:45:31
(UTC+00:00)

HJ-1C - Pass Details

Date: 09 April 2020
Orbit: 431 x 447 km, 97.2° (Epoch: 06 June)

Event Time Altitude Azimuth Distance (km) Brightness Sun altitude
Rises 15:09:07 0° 167° (SSE) 2,418 6.8 -10.7°
Reaches altitude 10° 15:11:07 10° 167° (SSE) 1,555 5.8 -11.1°
Maximum altitude 15:14:27 86° 83° (E) 450 3.3 -11.8°
Drops below altitude 10° 15:17:50 10° 350° (N) 1,573 6.5 -12.5°
Sets 15:19:52 0° 350° (N) 2,450 7.5 -12.9°
